When you browse on this site, cookies collect data to enhance your experience and personalize the content and advertising you see.
Visit our Privacy Policy to learn more. By continuing to use the site, you agree to this use of cookies and data.

Hourly Weather Nagano

Today, 5 July, Sunday

Time Temperature Precipitation Wind Pressure Humidity
00:00 +20°C° 0.2 mm 1 mps 688 mmHg 95%
01:00 +20°C° 0.1 mm 1 mps 688 mmHg 95%
02:00 +20°C° 0.1 mm 1 mps 688 mmHg 95%
03:00 +20°C° 0 mm 1 mps 688 mmHg 94%
04:00 +20°C° 0 mm 1 mps 688 mmHg 94%
05:00 +20°C° 0 mm 1 mps 689 mmHg 93%
06:00 +21°C° 0 mm 1 mps 689 mmHg 92%
07:00 +22°C° 0.1 mm 1 mps 689 mmHg 86%
08:00 +24°C° 0.1 mm 1 mps 690 mmHg 80%
09:00 +25°C° 0.1 mm 1 mps 690 mmHg 74%
10:00 +26°C° 0.6 mm 2 mps 690 mmHg 74%
11:00 +26°C° 0.6 mm 2 mps 691 mmHg 74%
12:00 +27°C° 0.6 mm 2 mps 691 mmHg 74%
13:00 +27°C° 0.8 mm 2 mps 691 mmHg 73%
14:00 +27°C° 0.8 mm 2 mps 690 mmHg 73%
15:00 +27°C° 0.8 mm 2 mps 690 mmHg 72%
16:00 +26°C° 0.5 mm 2 mps 690 mmHg 76%
17:00 +25°C° 0.5 mm 2 mps 690 mmHg 81%
18:00 +23°C° 0.5 mm 1 mps 690 mmHg 85%
19:00 +22°C° 0.2 mm 1 mps 690 mmHg 87%
20:00 +22°C° 0.2 mm 1 mps 690 mmHg 89%
21:00 +19°C° 0.2 mm 0 mps 690 mmHg 91%
22:00 +20°C° 0 mm 1 mps 690 mmHg 91%
23:00 +20°C° 0 mm 1 mps 690 mmHg 91%

Tomorrow, 6 July, Monday

Time Temperature Precipitation Wind Pressure Humidity
00:00 +20°C° 0 mm 1 mps 690 mmHg 90%
01:00 +20°C° 0.3 mm 1 mps 690 mmHg 91%
02:00 +20°C° 0.3 mm 1 mps 690 mmHg 92%
03:00 +20°C° 0.3 mm 1 mps 690 mmHg 93%
04:00 +20°C° 0 mm 1 mps 690 mmHg 93%
05:00 +20°C° 0 mm 1 mps 690 mmHg 92%
06:00 +19°C° 0 mm 0 mps 690 mmHg 92%
07:00 +21°C° 0.4 mm 1 mps 691 mmHg 92%
08:00 +21°C° 0.4 mm 1 mps 691 mmHg 93%
09:00 +21°C° 0.4 mm 1 mps 691 mmHg 93%
10:00 +21°C° 1.3 mm 1 mps 691 mmHg 94%
11:00 +21°C° 1.3 mm 1 mps 691 mmHg 94%
12:00 +19°C° 1.3 mm 0 mps 691 mmHg 95%
13:00 +21°C° 1.7 mm 1 mps 691 mmHg 95%
14:00 +21°C° 1.7 mm 1 mps 691 mmHg 95%
15:00 +21°C° 1.7 mm 1 mps 691 mmHg 95%
16:00 +21°C° 2.3 mm 1 mps 690 mmHg 96%
17:00 +21°C° 2.3 mm 1 mps 690 mmHg 96%
18:00 +21°C° 2.3 mm 1 mps 690 mmHg 96%
19:00 +21°C° 1.2 mm 1 mps 690 mmHg 96%
20:00 +21°C° 1.2 mm 1 mps 691 mmHg 96%
21:00 +21°C° 1.2 mm 1 mps 691 mmHg 96%
22:00 +21°C° 0.7 mm 1 mps 691 mmHg 96%
23:00 +21°C° 0.7 mm 1 mps 691 mmHg 96%

Day after tomorrow, 7 July, Tuesday

Time Temperature Precipitation Wind Pressure Humidity
00:00 +21°C° 0.7 mm 1 mps 691 mmHg 96%
01:00 +21°C° 0.9 mm 1 mps 691 mmHg 96%
02:00 +21°C° 0.9 mm 1 mps 690 mmHg 96%
03:00 +21°C° 0.9 mm 1 mps 690 mmHg 96%
04:00 +21°C° 0.9 mm 1 mps 690 mmHg 96%
05:00 +21°C° 0.9 mm 1 mps 690 mmHg 96%
06:00 +21°C° 0.9 mm 1 mps 690 mmHg 96%
07:00 +21°C° 0.6 mm 1 mps 690 mmHg 96%
08:00 +22°C° 0.6 mm 1 mps 690 mmHg 95%
09:00 +22°C° 0.6 mm 1 mps 690 mmHg 95%
10:00 +22°C° 2 mm 1 mps 690 mmHg 95%
11:00 +22°C° 2 mm 1 mps 690 mmHg 96%
12:00 +22°C° 2 mm 1 mps 690 mmHg 97%
13:00 +22°C° 3 mm 1 mps 689 mmHg 97%
14:00 +22°C° 3 mm 1 mps 689 mmHg 97%
15:00 +22°C° 3 mm 1 mps 689 mmHg 97%
16:00 +22°C° 1 mm 1 mps 689 mmHg 96%
17:00 +22°C° 1 mm 1 mps 689 mmHg 96%
18:00 +22°C° 1 mm 1 mps 689 mmHg 96%
19:00 +22°C° 1.1 mm 1 mps 689 mmHg 96%
20:00 +21°C° 1.1 mm 1 mps 689 mmHg 96%
21:00 +21°C° 1.1 mm 1 mps 689 mmHg 97%
22:00 +21°C° 0.1 mm 1 mps 689 mmHg 96%
23:00 +21°C° 0.1 mm 1 mps 688 mmHg 96%

8 July, Wednesday

Time Temperature Precipitation Wind Pressure Humidity
00:00 +21°C° 0.1 mm 1 mps 688 mmHg 95%
01:00 +21°C° 0.3 mm 1 mps 688 mmHg 95%
02:00 +21°C° 0.3 mm 1 mps 688 mmHg 96%
03:00 +21°C° 0.3 mm 1 mps 688 mmHg 96%
04:00 +21°C° 1.1 mm 1 mps 688 mmHg 96%
05:00 +21°C° 1.1 mm 1 mps 688 mmHg 96%
06:00 +19°C° 1.1 mm 0 mps 688 mmHg 96%
07:00 +19°C° 0.7 mm 0 mps 688 mmHg 96%
08:00 +19°C° 0.7 mm 0 mps 688 mmHg 96%
09:00 +19°C° 0.7 mm 0 mps 689 mmHg 96%
10:00 +20°C° 0.2 mm 0 mps 689 mmHg 93%
11:00 +21°C° 0.2 mm 0 mps 689 mmHg 90%
12:00 +22°C° 0.2 mm 0 mps 689 mmHg 87%
13:00 +22°C° 0.6 mm 0 mps 689 mmHg 86%
14:00 +25°C° 0.6 mm 1 mps 689 mmHg 84%
15:00 +25°C° 0.6 mm 1 mps 689 mmHg 83%
16:00 +25°C° 0.8 mm 1 mps 689 mmHg 85%
17:00 +24°C° 0.8 mm 1 mps 689 mmHg 87%
18:00 +23°C° 0.8 mm 1 mps 689 mmHg 88%
19:00 +22°C° 0.5 mm 1 mps 689 mmHg 89%
20:00 +22°C° 0.5 mm 1 mps 689 mmHg 90%
21:00 +21°C° 0.5 mm 1 mps 690 mmHg 91%
22:00 +21°C° 0.1 mm 1 mps 690 mmHg 91%
23:00 +21°C° 0.1 mm 1 mps 689 mmHg 92%

9 July, Thursday

Time Temperature Precipitation Wind Pressure Humidity
00:00 +21°C° 0.1 mm 1 mps 689 mmHg 93%
01:00 +21°C° 0.8 mm 1 mps 689 mmHg 93%
02:00 +20°C° 0.8 mm 1 mps 689 mmHg 94%
03:00 +18°C° 0.8 mm 0 mps 689 mmHg 95%
04:00 +20°C° 0.4 mm 1 mps 689 mmHg 95%
05:00 +20°C° 0.4 mm 1 mps 689 mmHg 95%
06:00 +20°C° 0.4 mm 1 mps 689 mmHg 95%
07:00 +19°C° 0.3 mm 0 mps 689 mmHg 93%
08:00 +20°C° 0.3 mm 0 mps 689 mmHg 92%
09:00 +20°C° 0.3 mm 0 mps 690 mmHg 90%
10:00 +24°C° 0.4 mm 1 mps 690 mmHg 86%
11:00 +25°C° 0.4 mm 1 mps 690 mmHg 81%
12:00 +26°C° 0.4 mm 1 mps 690 mmHg 77%
13:00 +26°C° 0.7 mm 1 mps 690 mmHg 77%
14:00 +25°C° 0.7 mm 1 mps 690 mmHg 77%
15:00 +25°C° 0.7 mm 1 mps 691 mmHg 78%
16:00 +25°C° 0.7 mm 1 mps 691 mmHg 81%
17:00 +24°C° 0.7 mm 1 mps 691 mmHg 84%
18:00 +23°C° 0.7 mm 1 mps 691 mmHg 87%
19:00 +22°C° 0.6 mm 1 mps 691 mmHg 89%
20:00 +21°C° 0.6 mm 1 mps 691 mmHg 91%
21:00 +21°C° 0.6 mm 1 mps 691 mmHg 92%
22:00 +21°C° 0.9 mm 1 mps 691 mmHg 93%
23:00 +20°C° 0.9 mm 1 mps 691 mmHg 93%

10 July, Friday

Time Temperature Precipitation Wind Pressure Humidity
00:00 +20°C° 0.9 mm 1 mps 691 mmHg 93%
01:00 +20°C° 0.1 mm 1 mps 692 mmHg 93%
02:00 +20°C° 0.1 mm 1 mps 692 mmHg 93%
03:00 +20°C° 0.1 mm 1 mps 692 mmHg 93%
04:00 +20°C° 0 mm 1 mps 692 mmHg 93%
05:00 +20°C° 0 mm 1 mps 692 mmHg 93%
06:00 +21°C° 0 mm 1 mps 693 mmHg 93%
07:00 +21°C° 0.1 mm 1 mps 693 mmHg 91%
08:00 +22°C° 0.1 mm 1 mps 693 mmHg 89%
09:00 +22°C° 0.1 mm 1 mps 693 mmHg 87%
10:00 +23°C° 0.1 mm 1 mps 693 mmHg 83%
11:00 +24°C° 0.1 mm 1 mps 694 mmHg 79%
12:00 +25°C° 0.1 mm 1 mps 694 mmHg 74%
13:00 +25°C° 0.4 mm 1 mps 694 mmHg 74%
14:00 +25°C° 0.4 mm 1 mps 694 mmHg 74%
15:00 +26°C° 0.4 mm 1 mps 694 mmHg 74%
16:00 +25°C° 0.6 mm 1 mps 693 mmHg 79%
17:00 +23°C° 0.6 mm 1 mps 693 mmHg 84%
18:00 +22°C° 0.6 mm 1 mps 693 mmHg 89%
19:00 +22°C° 0.5 mm 1 mps 693 mmHg 91%
20:00 +21°C° 0.5 mm 1 mps 693 mmHg 92%
21:00 +21°C° 0.5 mm 1 mps 693 mmHg 94%
22:00 +18°C° 1.1 mm 0 mps 693 mmHg 94%
23:00 +18°C° 1.1 mm 0 mps 693 mmHg 94%
Show more